Location: Roland
(31.1349°N, 85.4372°W)
Time: 21:46:12
(UTC+00:00)

S-56A Canister/Altair - Pass Details

Date: 24 April 2021
Orbit: 632 x 2501 km, 38.9° (Epoch: 10 May)

Event Time Altitude Azimuth Distance (km) Brightness Sun altitude
Exits shadow 08:03:21 15° 94° (E) 1,736 9.7 -34.0°
Drops below altitude 10° 08:04:08 10° 97° (E) 2,034 10.1 -33.9°
Sets 08:06:19 0° 102° (ESE) 2,909 10.9 -33.6°
